This demonstration page uses our WeatherBlox Daily Observations layout. Learn more.

Left ArrowRight Arrow

39.51506, -84.39828

Hourly Observations for May 25, 2018

Temp ( °F °C ) Dew Point ( °F °C ) Humidity (%) Winds ( mph kmh ) Pressure ( in mb ) Visibility ( mi km ) Precip ( " mm )
12:15 am 00:15 Clear 60 15.8 56 13.3 85 85 N N/A 30.09 1019 10 16 N/A
12:35 am 00:35 Clear 60 15.3 56 13.2 87 87 N N/A 30.09 1019 10 16 N/A
12:55 am 00:55 Clear 58 14.5 55 12.9 90 90 N N/A 30.09 1019 10 16 N/A
1:15 am 01:15 Clear 58 14.4 55 12.9 91 91 N N/A 30.09 1019 10 16 N/A
1:35 am 01:35 Clear 56 13.5 55 12.5 94 94 N 3 6 30.09 1019 10 16 N/A
1:55 am 01:55 Clear 57 13.9 55 12.8 93 93 N N/A 30.09 1019 10 16 N/A
2:15 am 02:15 Clear 56 13.4 54 12.4 94 94 NNW 3 6 30.06 1018 10 16 N/A
2:35 am 02:35 Clear 56 13.6 55 12.6 94 94 N N/A 30.06 1018 10 16 N/A
2:55 am 02:55 Clear 56 13.2 55 12.5 96 96 N N/A 30.06 1018 10 16 N/A
3:15 am 03:15 Clear 56 13.2 54 12.4 95 95 N N/A 30.06 1018 10 16 N/A
3:35 am 03:35 Clear 55 12.9 54 12.1 95 95 NNW 3 6 30.06 1018 10 16 N/A
3:55 am 03:55 Clear 55 12.7 53 11.9 95 95 NNW 3 6 30.06 1018 10 16 N/A
4:15 am 04:15 Clear 54 12.2 53 11.5 96 96 N 3 6 30.06 1018 10 16 N/A
4:35 am 04:35 Clear 54 12.4 53 11.8 96 96 N N/A 30.06 1018 10 16 N/A
4:55 am 04:55 Clear 54 12.4 53 11.9 97 97 N 5 7 30.06 1018 10 16 N/A
5:15 am 05:15 Clear 54 12.3 53 11.8 97 97 N 3 6 30.06 1018 10 16 N/A
5:35 am 05:35 Clear 53 11.9 53 11.4 97 97 N 5 7 30.06 1018 10 16 N/A
5:55 am 05:55 Clear 54 12.2 53 11.6 96 96 N 5 7 30.06 1018 10 16 N/A
6:15 am 06:15 Clear 54 12.2 53 11.5 96 96 N N/A 30.06 1018 10 16 N/A
6:35 am 06:35 Sunny with Mist and Fog 53 11.8 53 11.4 97 97 N N/A 30.06 1018 5 8 N/A
6:55 am 06:55 Sunny 53 11.8 53 11.4 97 97 N N/A 30.06 1018 7 11 N/A
7:15 am 07:15 Sunny 55 13 55 12.5 97 97 N N/A 30.06 1018 10 16 N/A
7:35 am 07:35 Sunny 58 14.4 56 13.6 95 95 N N/A 30.06 1018 10 16 N/A
7:55 am 07:55 Sunny 60 15.4 57 14 91 91 N N/A 30.06 1018 10 16 N/A
8:15 am 08:15 Sunny 62 16.8 58 14.7 88 88 N N/A 30.03 1017 10 16 N/A
8:35 am 08:35 Sunny 64 17.5 59 14.9 85 85 N N/A 30.00 1016 10 16 N/A
8:55 am 08:55 Sunny 65 18.6 59 15.1 80 80 N N/A 30.00 1016 10 16 N/A
9:15 am 09:15 Sunny 68 19.9 60 15.5 76 76 N N/A 30.00 1016 10 16 N/A
9:35 am 09:35 Sunny 70 21 61 15.9 73 73 N N/A 30.00 1016 10 16 N/A
9:55 am 09:55 Sunny 72 22.4 61 16.2 68 68 N N/A 30.00 1016 10 16 N/A
10:15 am 10:15 Sunny 75 23.7 60 15.7 61 61 N N/A 30.00 1016 10 16 N/A
10:35 am 10:35 Sunny 76 24.7 60 15.4 56 56 N N/A 30.00 1016 10 16 N/A
10:55 am 10:55 Sunny 78 25.3 58 14.2 50 50 N N/A 30.00 1016 10 16 N/A
11:15 am 11:15 Sunny 79 25.9 56 13.4 46 46 SW 3 6 30.00 1016 10 16 N/A
11:35 am 11:35 Sunny 79 26.3 57 13.7 46 46 WNW 5 7 30.00 1016 10 16 N/A
11:55 am 11:55 Sunny 80 26.6 57 14.1 46 46 N N/A 29.97 1015 10 16 N/A
12:15 pm 12:15 Sunny 80 26.7 56 13.5 44 44 N N/A 29.97 1015 10 16 N/A
12:35 pm 12:35 Sunny 82 27.5 59 14.8 46 46 SW 8 13 29.97 1015 10 16 N/A
12:55 pm 12:55 Sunny 81 27.4 58 14.5 45 45 SSE 7 11 29.97 1015 10 16 N/A
1:15 pm 13:15 Sunny 82 27.9 59 15.1 46 46 S 6 9 29.94 1014 10 16 N/A
1:30 pm 13:30 Sunny 82 28 58 14.2 43 43 S 6 9 29.91 1013 10 16 N/A
1:55 pm 13:55 Sunny 83 28.3 56 13.3 40 40 SW 8 13 29.91 1013 10 16 N/A
2:15 pm 14:15 Sunny 84 28.8 57 14.1 41 41 S 6 9 29.91 1013 10 16 N/A
2:35 pm 14:35 Sunny 84 29 57 14 40 40 W 9 15 29.91 1013 10 16 N/A
2:55 pm 14:55 Sunny 85 29.3 59 15 42 42 SSW 10 17 29.91 1013 10 16 N/A
3:15 pm 15:15 Sunny 85 29.4 56 13.5 38 38 WSW 10 17 29.88 1012 10 16 N/A
3:35 pm 15:35 Sunny 85 29.6 56 13.1 36 36 WSW 10 17 29.88 1012 10 16 N/A
3:55 pm 15:55 Sunny 85 29.6 56 13.2 37 37 SW 9 15 29.88 1012 10 16 N/A
4:15 pm 16:15 Sunny 85 29.5 55 12.8 36 36 SW 6 9 29.85 1011 10 16 N/A
4:35 pm 16:35 Sunny 85 29.7 55 12.9 36 36 WSW 7 11 29.85 1011 10 16 N/A
4:55 pm 16:55 Sunny 85 29.6 54 12.4 35 35 SW 8 13 29.85 1011 10 16 N/A
5:15 pm 17:15 Sunny 85 29.5 52 11.2 32 32 S 5 7 29.83 1010 10 16 N/A
5:35 pm 17:35 Sunny 85 29.4 56 13.4 37 37 SW 8 13 29.83 1010 10 16 N/A
5:55 pm 17:55 Sunny 85 29.5 58 14.2 39 39 SW 8 13 29.83 1010 10 16 N/A
6:15 pm 18:15 Sunny 85 29.2 56 13.5 38 38 SW 7 11 29.83 1010 10 16 N/A
6:35 pm 18:35 Sunny 84 28.9 57 14 40 40 SW 10 17 29.83 1010 10 16 N/A
6:55 pm 18:55 Sunny 84 28.8 57 14.1 41 41 WSW 7 11 29.83 1010 10 16 N/A
7:15 pm 19:15 Sunny 83 28.4 59 14.8 43 43 WSW 8 13 29.83 1010 10 16 N/A
7:35 pm 19:35 Sunny 82 27.7 60 15.3 47 47 WSW 5 7 29.83 1010 10 16 N/A
7:55 pm 19:55 Sunny 81 27.1 59 15.2 48 48 WSW 8 13 29.83 1010 10 16 N/A
8:15 pm 20:15 Sunny 79 26 60 15.4 52 52 SW 7 11 29.85 1011 10 16 N/A
8:35 pm 20:35 Sunny 76 24.4 60 15.8 59 59 SW 6 9 29.85 1011 10 16 N/A
8:55 pm 20:55 Clear 75 23.7 60 15.3 59 59 SW 6 9 29.85 1011 10 16 N/A
9:15 pm 21:15 Clear 71 21.6 62 16.4 72 72 WSW 3 6 29.85 1011 10 16 N/A
9:35 pm 21:35 Clear 69 20.8 63 17.3 80 80 N N/A 29.85 1011 10 16 N/A
9:55 pm 21:55 Clear 68 20 63 17.3 85 85 N N/A 29.85 1011 10 16 N/A
10:15 pm 22:15 Clear 68 19.9 62 16.5 81 81 N N/A 29.85 1011 10 16 N/A
10:35 pm 22:35 Clear 67 19.7 62 16.6 82 82 N N/A 29.85 1011 10 16 N/A
10:55 pm 22:55 Clear 66 18.8 61 15.9 83 83 N N/A 29.85 1011 10 16 N/A
11:15 pm 23:15 Clear 66 18.7 61 16.1 85 85 N N/A 29.85 1011 10 16 N/A
11:35 pm 23:35 Clear 65 18.4 61 15.9 85 85 N N/A 29.85 1011 10 16 N/A
11:55 pm 23:55 Clear 65 18.3 60 15.8 85 85 N N/A 29.85 1011 10 16 N/A

Powered by AerisWeather